Location: Hindfeld
(50.3665°N, 10.5660°E)
Time: 12:16:51
(UTC+00:00)

Daily predictions for brighter satellites

Satellite Brightness Start Highest point End
(mag) Time Altitude Azimuth Time Altitude Azimuth Time Altitude Azimuth
Cosmos 2154 Rocket 4.3 18:28:21 10° SSE 18:34:23 49° E 18:40:28 10° NNE
ATLAS 3B R/B 3.1 18:26:59 10° SW 18:34:40 84° SE 18:42:37 10° NE
USA 229 DEB 3.7 18:30:41 10° SW 18:36:44 84° NW 18:43:39 10° NE
USA 229 3.7 18:30:44 10° SW 18:36:48 85° NW 18:43:43 10° NE
Helios 1A Rocket 3.3 18:35:51 10° NE 18:38:37 25° E 18:41:22 10° SSE
Cosmos 1844 Rocket 4.0 18:34:43 10° NW 18:39:57 42° WSW 18:45:09 10° S
Aureole 1 Rocket 2.2 18:36:42 10° S 18:39:57 58° ESE 18:42:54 10° NNE
Cosmos 2278 3.8 18:34:21 10° SSW 18:40:01 88° WNW 18:45:45 10° NNE
Cosmos 2228 Rocket 3.1 18:37:46 10° N 18:42:17 77° ENE 18:46:44 10° SSE
Cosmos 2360 Rocket 2.2 18:39:05 10° SSW 18:44:40 69° ESE 18:50:18 10° NNE
COSMO-SKYMED 1 4.2 18:42:25 10° N 18:46:14 38° WNW 18:50:02 10° SW
Okean-O 4.2 18:43:47 10° ESE 18:46:52 19° ENE 18:49:59 10° NNE
BlueWalker 3 4.3 18:46:00 10° W 18:48:13 16° SW 18:50:25 10° S
Cosmos 2184 Rocket 4.0 18:46:08 10° S 18:52:27 72° E 18:58:48 10° NNE
Cosmos 2322 Rocket 2.2 18:46:58 10° SSW 18:52:35 83° ESE 18:58:14 10° NNE
Cosmos 1666 Rocket 3.7 18:50:32 10° SSW 18:54:49 80° W 18:59:09 10° N
Cosmos 1633 Rocket 3.0 18:51:30 10° S 18:55:53 87° E 19:00:17 10° N
Cosmos 1340 Rocket 2.8 18:52:54 10° SSW 18:56:33 73° WNW 19:00:14 10° N
ADEOS 4.0 18:52:55 10° SE 18:57:51 46° ENE 19:02:50 10° N
Feng Yun 1-1 Rocket 4.3 18:53:43 10° SSE 18:59:15 65° ENE 19:04:41 10° N
BREEZE-M DEB (TANK) 2.9 18:57:47 10° SW 18:59:50 29° SSE 19:02:36 10° E
SL-16 R/B 3.1 18:55:03 10° SW 19:00:36 56° NW 19:06:13 10° NNE
Terra 2.2 18:56:18 10° SE 19:00:46 46° ENE 19:05:16 10° N
ATLAS 5 CENTAUR R/B 3.5 18:59:51 10° WNW 19:02:06 18° NNW 19:04:33 10° NNE
MOS 1 4.4 18:57:29 10° SSE 19:03:01 62° ENE 19:08:37 10° N
CSL-04 Debris 4.2 18:58:02 10° SSE 19:03:24 88° WSW 19:08:48 10° NNW
CZ-4 R/B 1.2 19:01:50 10° SSE 19:05:39 86° ENE 19:09:25 10° NNW
Cosmos 1898 Rocket 3.4 19:00:31 10° SSW 19:05:43 71° ESE 19:10:56 10° NNE
Resurs 01 Rocket 4.1 19:04:20 10° SSW 19:07:53 24° W 19:11:26 10° NW
SL-08 R/B 4.1 19:04:47 10° NNE 19:09:08 31° E 19:13:30 10° SSE
Okean O Rocket 2.6 19:06:43 13° ESE 19:09:55 30° ENE 19:13:44 10° N
Meteor 1-24 Rocket 4.3 19:08:19 10° NNW 19:13:38 58° W 19:19:07 10° S
Cosmos 2333 4.2 19:09:41 10° SSW 19:15:17 89° WNW 19:20:56 10° NNE
Cosmos 372 Rocket 4.2 19:11:23 10° SSW 19:16:36 76° WNW 19:21:52 10° NNE
Cosmos 1680 Rocket 3.5 19:12:40 10° NNW 19:17:53 67° ENE 19:22:22 14° SE
CZ-4B R/B 4.5 19:16:53 14° E 19:18:12 16° ENE 19:20:27 10° NNE
SPOT 5 3.6 19:16:28 10° S 19:21:06 51° W 19:25:33 10° NNW
Cosmos 2219 Rocket 2.1 19:15:33 10° SSW 19:21:07 80° ESE 19:26:44 10° NNE
Cosmos 2074 Rocket 4.4 19:18:02 10° SSW 19:24:14 70° WNW 19:30:30 10° N
Meteor 1-31 Rocket 3.6 19:22:41 10° S 19:26:04 45° W 19:29:29 10° NNW
Cosmos 1937 Rocket 3.5 19:21:59 10° SSW 19:27:16 79° ESE 19:32:35 10° NNE
SL-24 R/B - RUBIN 2 3.5 19:27:47 10° NW 19:32:12 88° NE 19:35:18 21° SE
Cosmos 923 Rocket 4.2 19:28:32 10° NNW 19:33:51 72° WSW 19:38:50 11° SSE
USA 234 3.3 19:27:22 10° ENE 19:33:57 84° NNW 19:40:31 10° WSW
USA 186 2.1 19:34:28 25° NE 19:34:28 25° NE 19:36:02 10° N
Cosmos 2369 Rocket 4.4 19:31:44 10° N 19:34:36 14° NNE 19:37:27 10° ENE
Cosmos 2112 Rocket 3.9 19:30:13 10° NNW 19:35:28 76° ENE 19:39:16 19° SSE
SL-8 Rocket 4.2 19:30:27 10° SSE 19:36:26 52° E 19:42:30 10° NNE
NOSS 2-3 (E) 4.2 19:32:42 10° NW 19:37:38 86° SW 19:42:20 19° SE
COSMOS 2428 3.1 19:33:12 10° S 19:38:29 40° ESE 19:43:48 10° NE
USA 238 DEB 4.3 19:32:04 10° NW 19:39:05 54° NE 19:44:50 19° ESE
USA 238 4.3 19:32:14 10° NW 19:39:15 53° NE 19:45:00 19° ESE
PAYLOAD B 4.5 19:34:54 10° S 19:40:22 69° WSW 19:45:52 10° NNW
Cosmos 1953 4.4 19:37:37 10° SW 19:40:42 26° WNW 19:43:49 10° NNW
CZ-4B R/B 3.3 19:35:20 10° SSE 19:40:51 82° WSW 19:46:31 10° NNW
NOSS 2-3 (C) 4.2 19:36:15 10° NW 19:41:05 81° NE 19:45:27 22° SE
MetOp-B 4.2 19:35:54 10° SSE 19:41:16 80° WSW 19:46:40 10° NNW
Cosmos 1241 Rocket 4.5 19:35:17 10° NW 19:41:34 78° NE 19:45:53 22° SE
USA 245 4.4 19:40:43 24° ESE 19:42:18 32° ENE 19:46:25 10° N
Cosmos 2278 Rocket 2.6 19:39:01 10° NNW 19:44:34 51° NE 19:47:49 24° ESE
SKYMED 3 4.1 19:41:35 10° NNE 19:45:29 76° ESE 19:49:21 10° S
Cosmos 2366 rocket 4.1 19:40:26 10° SSE 19:46:25 55° E 19:52:23 10° NNE
Ariane Rocket 3.9 19:46:48 23° ESE 19:48:56 32° ENE 19:53:22 10° N
NOSS 3-2 (C) 4.3 19:42:25 10° NW 19:49:37 70° SW 19:56:23 18° SSE
Cosmos 2327 Rocket 4.4 19:43:36 10° S 19:49:46 82° E 19:56:04 10° N
Cosmos 2333 Rocket 4.0 19:45:05 10° WSW 19:50:11 33° NW 19:55:19 10° NNE
Geosat 4.2 19:49:00 10° NNE 19:54:00 76° NW 19:59:00 10° SW
USA 32 4.2 19:53:57 23° SSE 19:56:58 51° E 20:02:02 10° NNE
Spot 2 Rocket 3.4 19:53:55 22° SSE 19:57:14 81° ENE 20:02:17 10° NNW
BREEZE-M DEB (TANK) 2.1 19:54:39 10° W 19:57:14 77° S 19:59:33 27° ESE
Cosmos 1346 Rocket 4.5 19:54:59 10° NNE 19:57:18 16° ENE 19:57:18 16° ENE
NOSS 2-3 (D) 4.4 19:54:58 10° NW 19:59:56 67° SW 20:03:53 24° SSE
Lacrosse 5 rocket 0.5 19:56:54 10° SW 20:00:04 64° SE 20:00:41 49° E
CZ-2C R/B 3.6 20:00:39 23° NE 20:00:39 23° NE 20:02:42 10° N
Cosmos 1809 Rocket 4.4 19:54:51 10° N 20:01:02 76° E 20:05:08 22° SSE
ARIANE 6 FM1 Upper Stage 3.5 19:57:27 10° WSW 20:01:28 50° NW 20:05:24 10° NE
Cosmos 1378 Rocket 4.2 19:58:07 10° N 20:02:17 39° ENE 20:03:21 34° ESE
ERS-1 Rocket 3.8 19:58:12 10° S 20:03:01 47° W 20:07:52 10° NNW
Cosmos 1933 Rocket 4.0 20:01:10 10° SSW 20:05:29 62° WNW 20:09:52 10° N
Cosmos 1943 Rocket 2.1 20:04:29 10° NNW 20:10:12 86° ENE 20:12:59 32° SSE
YAOGAN 11 3.9 20:07:00 10° NNE 20:11:15 79° ESE 20:13:55 22° S
Cosmos 2218 Rocket 3.9 20:06:05 12° S 20:11:47 76° E 20:17:56 10° NNE
Meteor 1-11 4.2 20:08:40 10° N 20:14:13 65° ENE 20:16:34 34° SE
Meteor 2-15 4.3 20:11:09 17° S 20:15:53 72° E 20:21:58 10° NNE
USA 59 Rocket 0.8 20:13:50 10° NNW 20:16:41 29° NE 20:17:17 28° ENE
MOS 1-B 4.5 20:14:21 22° S 20:18:14 73° WSW 20:24:02 10° NNW
Cosmos 1733 Rocket 3.1 20:18:20 47° SE 20:19:11 56° E 20:23:29 10° NNE
Cosmos 192 4.3 20:18:37 33° S 20:20:36 57° ESE 20:25:25 10° NNE
SeaSat 1 3.5 20:19:54 26° E 20:21:36 33° NE 20:25:58 10° NNW
Cosmos 1959 Rocket 4.5 20:15:53 13° S 20:21:37 84° E 20:28:00 10° N
CZ-4B R/B 3.4 20:20:21 41° SE 20:21:57 67° ENE 20:26:44 10° N
NOSS 3-4 (A) 3.8 20:23:13 34° ESE 20:23:13 34° ESE 20:27:40 10° NE
Okean-O 3.0 20:20:35 28° S 20:22:44 61° WSW 20:27:06 10° NNW
IRS-1C Rocket 4.2 20:20:58 38° SE 20:22:48 60° ENE 20:28:01 10° N
NOSS 3-4 (C) 3.8 20:23:46 33° E 20:23:46 33° E 20:28:11 10° NE
Cosmos 1821 Rocket 3.9 20:22:24 24° S 20:26:15 71° E 20:32:33 10° NNE
ATLAS 3B R/B 4.2 20:18:55 10° W 20:26:16 42° NNW 20:33:42 10° NE
Cosmos 1048 Rocket 3.9 20:22:55 10° NNW 20:28:03 83° WSW 20:29:52 41° SSE
Cosmos 2360 Rocket 4.3 20:24:19 10° WSW 20:29:08 28° NW 20:34:01 10° NNE
Timation 2 Rocket 4.0 20:27:22 10° NNW 20:33:39 88° WSW 20:36:19 38° SSE
NOSS 2-1 (E) 4.3 20:32:22 10° NNW 20:35:13 29° NE 20:35:21 29° NE
NOSS 2-1 (C) 4.1 20:34:02 10° NNW 20:36:57 32° NE 20:36:58 32° NE
Terra 3.7 20:34:37 10° SSW 20:38:30 25° W 20:42:24 10° NW
Aureole 3 3.5 20:34:52 10° NNW 20:38:57 83° W 20:40:03 52° S
Meteor 2-21 4.5 20:33:43 10° NNW 20:39:51 79° W 20:42:49 33° S
NOSS 2-1 (D) 3.9 20:39:40 10° NNW 20:42:32 40° NNE 20:42:32 40° NNE
Cosmos 468 4.4 20:38:58 10° NNW 20:44:14 80° ENE 20:45:23 55° SE
Cosmos 2242 Rocket 3.9 20:40:44 10° NNW 20:45:13 63° W 20:46:21 45° SSW
ATLAS 5 CENTAUR R/B 4.2 20:44:38 10° NNW 20:45:34 11° N 20:46:31 10° NNE
Okean O Rocket 2.9 20:43:57 22° SW 20:46:01 35° W 20:50:02 10° NNW
Cosmos 1000 Rocket 4.4 20:40:59 10° N 20:47:12 73° ENE 20:49:04 46° SSE
Cosmos 2237 Rocket 2.2 20:47:31 50° SSE 20:48:36 59° ESE 20:54:12 10° NE
Cosmos 1980 3.6 20:47:57 47° S 20:49:25 64° ESE 20:55:01 10° NE
Cosmos 1025 Rocket 2.9 20:45:15 10° N 20:49:24 66° ENE 20:49:24 66° ENE
Cosmos 1125 Rocket 3.7 20:51:20 51° E 20:51:20 51° E 20:56:13 10° NNE
CZ-4B R/B 3.2 20:51:35 49° WSW 20:51:40 50° W 20:55:08 10° NNW
ASTEX 1 3.7 20:50:46 40° SSW 20:52:25 63° W 20:57:19 10° N
Cosmos 2322 4.2 20:47:06 10° SW 20:52:45 59° NW 20:58:26 10° NNE
Cosmos 2292 Rocket 3.8 20:47:25 10° N 20:53:20 78° E 20:54:03 64° SE
Cosmos 1400 Rocket 3.4 21:03:02 47° N 21:03:02 47° N 21:05:45 10° N
SPOT 3 Rocket 4.0 21:02:11 40° SSW 21:03:43 55° W 21:08:50 10° NNW
Cosmos 2219 Rocket 4.4 21:01:08 10° W 21:05:42 25° NW 21:10:18 10° NNE
SL-08 R/B 4.3 21:11:04 57° SSE 21:12:17 75° E 21:18:25 10° NNE
USA 234 4.0 21:10:22 10° ENE 21:16:40 53° N 21:22:59 10° W
Cosmos 1674 Rocket 4.0 21:15:49 10° NNW 21:19:57 52° W 21:19:57 52° W
Cosmos 2369 Rocket 2.8 21:14:50 10° NNW 21:20:10 43° NE 21:20:57 41° ENE
Cosmos 1908 Rocket 4.1 21:22:14 51° NNE 21:22:14 51° NNE 21:25:33 10° NNE
Helios 1B rocket 3.8 21:23:49 27° NNE 21:23:49 27° NNE 21:25:42 10° N
COSMOS 2428 3.8 21:17:16 10° WSW 21:22:42 43° NW 21:28:11 10° NNE
NOSS 0 Rocket 4.3 21:19:24 10° SW 21:25:35 62° NW 21:31:48 10° NNE
Ariane Rocket 3.7 21:26:52 39° SW 21:27:42 43° W 21:32:30 10° NNW
Cosmos 2278 Rocket 3.3 21:23:25 10° NW 21:28:26 33° WSW 21:29:39 30° SW
USA 238 DEB 4.2 21:23:04 10° NW 21:30:16 56° WSW 21:32:16 45° S
USA 238 4.2 21:23:14 10° NW 21:30:27 57° WSW 21:32:26 46° S
Cosmos 2221 Rocket 3.9 21:26:19 10° NNW 21:30:11 61° NW 21:30:11 61° NW
Cosmos 1346 Rocket 4.2 21:29:13 10° NNW 21:31:34 33° NW 21:31:34 33° NW
Helios 1A 4.4 21:30:46 10° NNE 21:32:54 30° NNE 21:32:54 30° NNE
Lacrosse 5 rocket 3.8 21:33:59 10° W 21:34:04 11° W 21:34:04 11° W
DNEPR-1 R/B 4.3 21:45:57 50° NNW 21:45:57 50° NNW 21:49:50 10° NE
Cosmos 1656 Rocket 3.7 21:45:06 10° NNW 21:50:17 65° W 21:50:17 65° W
Cosmos 1943 Rocket 4.1 21:49:28 10° WNW 21:53:11 18° W 21:54:29 17° WSW
SL-16 R/B 2.8 21:58:05 44° ENE 21:58:05 44° ENE 22:02:11 10° NE
SJ 16-02 3.7 21:54:25 10° NNE 21:56:41 14° NE 21:56:47 14° NE
SeaSat 1 3.1 21:59:30 47° W 21:59:30 47° W 22:03:36 10° NW
CZ-2C R/B 4.3 22:02:52 22° ENE 22:03:34 23° ENE 22:07:47 10° N
Cosmos 1934 Rocket 4.3 22:03:45 52° WSW 22:04:57 62° WNW 22:11:10 10° N
USA 59 Rocket 2.2 22:02:05 10° WNW 22:02:48 15° WNW 22:02:48 15° WNW
BREEZE-M R/B 4.5 21:54:17 10° SW 22:05:55 64° SSE 22:11:39 10° ENE
Cosmos 1447 Rocket 4.4 22:00:05 10° N 22:06:26 78° E 22:06:34 78° E
Cosmos 1140 Rocket 4.0 22:04:17 10° NNW 22:08:44 54° NNE 22:08:44 54° NNE
Cosmos 921 Rocket 4.5 22:05:15 10° N 22:08:19 33° NNE 22:08:19 33° NNE
Cosmos 2346 Rocket 4.3 22:03:48 10° N 22:09:57 89° WSW 22:09:59 88° SW
NOSS 3-4 (A) 3.8 22:10:28 29° W 22:13:03 54° NW 22:19:00 10° NE
NOSS 3-4 (C) 3.8 22:11:02 30° W 22:13:34 55° NW 22:19:32 10° NE
Cosmos 2285 Rocket 3.9 22:19:16 84° WSW 22:19:26 86° WNW 22:25:51 10° NNE
Cosmos 967 Rocket 4.4 22:20:17 10° NW 22:26:46 87° NE 22:26:46 87° NE
NOSS 3-1 (C) 3.9 22:20:38 10° NW 22:27:29 84° NE 22:28:43 67° ESE
ALOS 2 3.9 22:29:40 39° N 22:29:40 39° N 22:32:31 10° N
RESURS DK-1 4.3 22:30:06 26° N 22:30:06 26° N 22:32:16 10° NNE
ATLAS 5 CENTAUR R/B 3.7 22:26:19 10° NNW 22:29:02 18° NNE 22:29:34 18° NE
Cosmos 1605 Rocket 4.1 22:32:45 64° W 22:32:57 64° WNW 22:39:03 10° N
Cosmos 2237 Rocket 3.8 22:29:12 16° W 22:33:00 32° NW 22:38:07 10° NNE
Cosmos 1269 Rocket 4.5 22:32:59 10° NNW 22:37:13 58° NNW 22:37:13 58° NNW
Cosmos 2297 4.1 22:32:39 10° NNW 22:37:29 58° WNW 22:37:29 58° WNW
ARIANE 5 R/B 4.0 22:40:11 35° NNW 22:40:11 35° NNW 22:42:48 10° NNW
COSMOS 2455 3.4 22:38:52 10° NNW 22:44:46 51° NE 22:45:16 50° ENE
Cosmos 2173 Rocket 4.1 22:55:45 67° NE 22:55:45 67° NE 23:01:12 10° NNE
CZ-2C R/B 4.2 22:52:39 10° NNE 22:55:50 34° NE 22:55:50 34° NE
USA 234 3.8 22:52:49 10° E 22:59:10 55° NNE 23:05:32 10° WNW
Cosmos 2100 Rocket 4.0 23:00:25 74° NE 23:00:25 74° NE 23:06:04 10° NNE
Cosmos 2251 Rocket 4.4 22:58:45 10° NNW 23:03:27 43° NE 23:03:27 43° NE
Cosmos 371 Rocket 4.3 22:59:09 10° NNW 23:02:35 43° N 23:02:35 43° N
Cosmos 2369 Rocket 3.4 22:59:00 10° NW 23:02:43 33° WNW 23:02:43 33° WNW
NOSS 3-1 (A) 3.9 23:11:43 10° NW 23:18:37 83° NE 23:19:59 65° ESE
Cosmos 1943 3.5 23:21:35 62° NNE 23:21:35 62° NNE 23:26:18 10° NNE
SJ 16-02 3.1 23:31:11 10° NNW 23:33:17 28° NNW 23:33:17 28° NNW
Meteor 2-12 Rocket 4.5 23:30:35 10° N 23:36:15 74° NE 23:36:15 74° NE
Cosmos 1864 Rocket 4.5 23:39:22 76° NW 23:39:22 76° NW 23:45:26 10° N
ACS3 Solar Sail 3.0 23:35:10 10° NNE 23:40:16 28° E 23:40:25 28° E
SL-16 R/B 3.5 23:39:53 30° WNW 23:41:03 32° NW 23:46:08 10° NNE
CZ-2C R/B 3.1 23:44:18 58° NW 23:44:18 58° NW 23:48:49 10° NNW
Cosmos 1802 Rocket 4.0 23:43:35 74° WNW 23:43:35 74° WNW 23:49:43 10° N
SL-08 R/B 4.4 23:44:27 78° NNE 23:44:27 78° NNE 23:50:13 10° N
Meteor 2-3 Rocket 4.5 23:41:32 10° NNW 23:45:50 44° WNW 23:45:50 44° WNW
Cosmos 1725 Rocket 4.0 23:48:09 74° WNW 23:48:09 74° WNW 23:54:17 10° N
Cosmos 1818 4.1 23:46:05 10° NW 23:51:28 54° NE 23:51:37 54° NE
